"Period start","avg(HW err(1)/warn(2) (#))","avg(Visibility (m))","avg(Weather code (#))","avg(Precip intensity (mm/h))","min(HW err(1)/warn(2) (#))","max(HW err(1)/warn(2) (#))","std(HW err(1)/warn(2) (#))","med(HW err(1)/warn(2) (#))","min(Visibility (m))","max(Visibility (m))","std(Visibility (m))","med(Visibility (m))","min(Weather code (#))","max(Weather code (#))","std(Weather code (#))","med(Weather code (#))","min(Precip intensity (mm/h))","max(Precip intensity (mm/h))","std(Precip intensity (mm/h))","med(Precip intensity (mm/h))"
2017-06-29 00:00:00,2,41656,0,0.00,2,2,0,2,27050,49322,6389,42219,0,0,0,0,0.00,0.00,0.00,0.00
2017-06-29 00:10:00,2,41484,0,0.00,2,2,0,2,29431,49890,6366,42932,0,0,0,0,0.00,0.00,0.00,0.00
2017-06-29 00:20:00,2,35915,0,0.00,2,2,0,2,24055,50000,6863,37004,0,0,0,0,0.00,0.00,0.00,0.00
2017-06-29 00:30:00,2,38152,0,0.00,2,2,0,2,27672,48232,6589,38024,0,0,0,0,0.00,0.00,0.00,0.00
2017-06-29 00:40:00,2,39338,0,0.00,2,2,0,2,27050,50000,8489,38053,0,0,0,0,0.00,0.00,0.00,0.00
2017-06-29 00:50:00,2,36124,0,0.00,2,2,0,2,22643,46459,6924,36317,0,0,0,0,0.00,0.00,0.00,0.00
2017-06-29 01:00:00,2,43548,0,0.00,2,2,0,2,32285,50000,6766,46626,0,0,0,0,0.00,0.00,0.00,0.00
2017-06-29 01:10:00,2,37066,0,0.00,2,2,0,2,20307,50000,11299,41408,0,0,0,0,0.00,0.00,0.00,0.00
2017-06-29 01:20:00,2,42975,0,0.00,2,2,0,2,33093,50000,4568,43656,0,0,0,0,0.00,0.00,0.00,0.00
2017-06-29 01:30:00,2,38284,0,0.00,2,2,0,2,21155,50000,9653,40014,0,0,0,0,0.00,0.00,0.00,0.00
2017-06-29 01:40:00,2,40548,0,0.00,2,2,0,2,31214,50000,7169,39558,0,0,0,0,0.00,0.00,0.00,0.00
2017-06-29 01:50:00,2,35853,0,0.00,2,2,0,2,22945,50000,8897,35972,0,0,0,0,0.00,0.00,0.00,0.00
2017-06-29 02:00:00,2,41838,0,0.00,2,2,0,2,29531,46174,4630,42574,0,0,0,0,0.00,0.00,0.00,0.00
2017-06-29 02:10:00,2,36152,0,0.00,2,2,0,2,18442,50000,11456,35764,0,0,0,0,0.00,0.00,0.00,0.00
2017-06-29 02:20:00,2,45535,0,0.00,2,2,0,2,36937,50000,4551,46711,0,0,0,0,0.00,0.00,0.00,0.00
2017-06-29 02:30:00,2,40815,0,0.00,2,2,0,2,22152,50000,8998,43464,0,0,0,0,0.00,0.00,0.00,0.00
2017-06-29 02:40:00,2,48279,0,0.00,1,2,0,2,42356,50000,2614,50000,0,0,0,0,0.00,0.00,0.00,0.00
2017-06-29 02:50:00,2,43561,0,0.00,2,2,0,2,26791,50000,7393,45159,0,0,0,0,0.00,0.00,0.00,0.00
2017-06-29 03:00:00,2,37758,0,0.00,2,2,0,2,25899,46642,5551,37008,0,0,0,0,0.00,0.00,0.00,0.00
2017-06-29 03:10:00,2,36013,0,0.00,2,2,0,2,26848,48131,7361,37301,0,0,0,0,0.00,0.00,0.00,0.00
2017-06-29 03:20:00,1,39959,0,0.00,0,2,1,2,29110,50000,7506,39343,0,0,0,0,0.00,0.00,0.00,0.00
2017-06-29 03:30:00,1,46467,0,0.00,0,2,1,0,38758,50000,4217,48988,0,0,0,0,0.00,0.00,0.00,0.00
2017-06-29 03:40:00,1,40285,0,0.00,0,2,1,0,22904,47147,7516,43991,0,0,0,0,0.00,0.00,0.00,0.00
2017-06-29 03:50:00,1,47423,0,0.00,0,2,1,0,40245,50000,3571,50000,0,0,0,0,0.00,0.00,0.00,0.00
2017-06-29 04:00:00,2,44725,0,0.00,0,2,1,2,33267,50000,5273,45349,0,0,0,0,0.00,0.00,0.00,0.00
2017-06-29 04:10:00,1,48912,0,0.00,0,2,1,1,41324,50000,2554,50000,0,0,0,0,0.00,0.00,0.00,0.00
2017-06-29 04:20:00,0,45447,0,0.00,0,2,1,0,35545,50000,5226,47959,0,0,0,0,0.00,0.00,0.00,0.00
2017-06-29 04:30:00,0,49519,0,0.00,0,0,0,0,47404,50000,966,50000,0,0,0,0,0.00,0.00,0.00,0.00
2017-06-29 04:40:00,0,43878,0,0.00,0,0,0,0,39143,50000,3438,42988,0,0,0,0,0.00,0.00,0.00,0.00
2017-06-29 04:50:00,0,48558,0,0.00,0,0,0,0,43115,50000,2384,50000,0,0,0,0,0.00,0.00,0.00,0.00
2017-06-29 05:00:00,0,44590,0,0.00,0,0,0,0,36460,50000,5628,45986,0,0,0,0,0.00,0.00,0.00,0.00
2017-06-29 05:10:00,0,46208,0,0.00,0,0,0,0,41904,50000,3311,45607,0,0,0,0,0.00,0.00,0.00,0.00
2017-06-29 05:20:00,0,47872,0,0.00,0,0,0,0,44811,50000,2133,48172,0,0,0,0,0.00,0.00,0.00,0.00
2017-06-29 05:30:00,0,47147,0,0.00,0,0,0,0,39389,50000,4266,50000,0,0,0,0,0.00,0.00,0.00,0.00
2017-06-29 05:40:00,0,48309,0,0.00,0,0,0,0,43323,50000,2406,49733,0,0,0,0,0.00,0.00,0.00,0.00
2017-06-29 05:50:00,0,48006,0,0.00,0,0,0,0,39426,50000,3550,50000,0,0,0,0,0.00,0.00,0.00,0.00
2017-06-29 06:00:00,0,48055,0,0.00,0,0,0,0,38812,50000,3343,50000,0,0,0,0,0.00,0.00,0.00,0.00
2017-06-29 06:10:00,0,43823,0,0.00,0,0,0,0,25380,50000,9304,49666,0,0,0,0,0.00,0.00,0.00,0.00
2017-06-29 06:20:00,0,47402,0,0.00,0,0,0,0,31174,50000,5540,49923,0,0,0,0,0.00,0.00,0.00,0.00
2017-06-29 06:30:00,0,47482,0,0.00,0,0,0,0,32945,50000,5012,50000,0,0,0,0,0.00,0.00,0.00,0.00
2017-06-29 06:40:00,0,49316,0,0.00,0,0,0,0,46884,50000,1102,50000,0,0,0,0,0.00,0.00,0.00,0.00
2017-06-29 06:50:00,0,46381,0,0.00,0,0,0,0,37125,50000,4948,49373,0,0,0,0,0.00,0.00,0.00,0.00
2017-06-29 07:00:00,0,50000,0,0.00,0,0,0,0,50000,50000,0,50000,0,0,0,0,0.00,0.00,0.00,0.00
2017-06-29 07:10:00,0,49412,0,0.00,0,0,0,0,45481,50000,1372,50000,0,0,0,0,0.00,0.00,0.00,0.00
2017-06-29 07:20:00,0,49823,0,0.00,0,0,0,0,48934,50000,364,50000,0,0,0,0,0.00,0.00,0.00,0.00
2017-06-29 07:30:00,0,45584,0,0.00,0,0,0,0,27490,50000,6924,48925,0,0,0,0,0.00,0.00,0.00,0.00
2017-06-29 07:40:00,0,49245,0,0.00,0,0,0,0,45091,50000,1593,50000,0,0,0,0,0.00,0.00,0.00,0.00
2017-06-29 07:50:00,0,49220,0,0.00,0,0,0,0,47506,50000,1012,50000,0,0,0,0,0.00,0.00,0.00,0.00
2017-06-29 08:00:00,0,47606,0,0.00,0,0,0,0,39622,50000,3298,48852,0,0,0,0,0.00,0.00,0.00,0.00
2017-06-29 08:10:00,0,49221,0,0.00,0,0,0,0,44822,50000,1632,50000,0,0,0,0,0.00,0.00,0.00,0.00
2017-06-29 08:20:00,0,49630,0,0.00,0,0,0,0,48533,50000,503,50000,0,0,0,0,0.00,0.00,0.00,0.00
2017-06-29 08:30:00,0,49645,0,0.00,0,0,0,0,48164,50000,710,50000,0,0,0,0,0.00,0.00,0.00,0.00
2017-06-29 08:40:00,0,49928,0,0.00,0,0,0,0,49280,50000,216,50000,0,0,0,0,0.00,0.00,0.00,0.00
2017-06-29 08:50:00,0,49975,0,0.00,0,0,0,0,49751,50000,75,50000,0,0,0,0,0.00,0.00,0.00,0.00
2017-06-29 09:00:00,0,49351,0,0.00,0,0,0,0,47101,50000,1120,50000,0,0,0,0,0.00,0.00,0.00,0.00
2017-06-29 09:10:00,0,49961,0,0.00,0,0,0,0,49611,50000,117,50000,0,0,0,0,0.00,0.00,0.00,0.00
2017-06-29 09:20:00,0,49988,0,0.00,0,0,0,0,49879,50000,36,50000,0,0,0,0,0.00,0.00,0.00,0.00
2017-06-29 09:30:00,0,48924,0,0.00,0,0,0,0,44151,50000,1919,50000,0,0,0,0,0.00,0.00,0.00,0.00
2017-06-29 09:40:00,0,49777,0,0.00,0,0,0,0,47774,50000,668,50000,0,0,0,0,0.00,0.00,0.00,0.00
2017-06-29 09:50:00,0,49556,0,0.00,0,0,0,0,46300,50000,1108,50000,0,0,0,0,0.00,0.00,0.00,0.00
2017-06-29 10:00:00,0,49646,0,0.00,0,0,0,0,48142,50000,709,50000,0,0,0,0,0.00,0.00,0.00,0.00
2017-06-29 10:10:00,0,50000,0,0.00,0,0,0,0,50000,50000,0,50000,0,0,0,0,0.00,0.00,0.00,0.00
2017-06-29 10:20:00,0,49388,0,0.00,0,0,0,0,45177,50000,1456,50000,0,0,0,0,0.00,0.00,0.00,0.00
2017-06-29 10:30:00,0,50000,0,0.00,0,0,0,0,50000,50000,0,50000,0,0,0,0,0.00,0.00,0.00,0.00
2017-06-29 10:40:00,0,50000,0,0.00,0,0,0,0,50000,50000,0,50000,0,0,0,0,0.00,0.00,0.00,0.00
2017-06-29 10:50:00,0,50000,0,0.00,0,0,0,0,50000,50000,0,50000,0,0,0,0,0.00,0.00,0.00,0.00
2017-06-29 11:00:00,0,50000,0,0.00,0,0,0,0,50000,50000,0,50000,0,0,0,0,0.00,0.00,0.00,0.00
2017-06-29 11:10:00,0,50000,0,0.00,0,0,0,0,50000,50000,0,50000,0,0,0,0,0.00,0.00,0.00,0.00
2017-06-29 11:20:00,0,50000,0,0.00,0,0,0,0,50000,50000,0,50000,0,0,0,0,0.00,0.00,0.00,0.00
2017-06-29 11:30:00,0,50000,0,0.00,0,0,0,0,50000,50000,0,50000,0,0,0,0,0.00,0.00,0.00,0.00
2017-06-29 11:40:00,0,50000,0,0.00,0,0,0,0,50000,50000,0,50000,0,0,0,0,0.00,0.00,0.00,0.00
2017-06-29 11:50:00,0,50000,0,0.00,0,0,0,0,50000,50000,0,50000,0,0,0,0,0.00,0.00,0.00,0.00
2017-06-29 12:00:00,0,50000,0,0.00,0,0,0,0,50000,50000,0,50000,0,0,0,0,0.00,0.00,0.00,0.00
2017-06-29 12:10:00,0,50000,0,0.00,0,0,0,0,50000,50000,0,50000,0,0,0,0,0.00,0.00,0.00,0.00
2017-06-29 12:20:00,0,50000,0,0.00,0,0,0,0,50000,50000,0,50000,0,0,0,0,0.00,0.00,0.00,0.00
2017-06-29 12:30:00,0,50000,0,0.00,0,0,0,0,50000,50000,0,50000,0,0,0,0,0.00,0.00,0.00,0.00
2017-06-29 12:40:00,0,50000,0,0.00,0,0,0,0,50000,50000,0,50000,0,0,0,0,0.00,0.00,0.00,0.00
2017-06-29 12:50:00,0,48484,58,0.86,0,0,0,0,36244,50000,4090,50000,51,61,5,61,0.00,3.00,0.97,0.53
2017-06-29 13:00:00,0,50000,20,0.03,0,0,0,0,50000,50000,0,50000,0,51,25,0,0.00,0.25,0.08,0.00
2017-06-29 13:10:00,0,50000,0,0.00,0,0,0,0,50000,50000,0,50000,0,0,0,0,0.00,0.00,0.00,0.00
2017-06-29 13:20:00,0,50000,0,0.00,0,0,0,0,50000,50000,0,50000,0,0,0,0,0.00,0.00,0.00,0.00
2017-06-29 13:30:00,0,50000,0,0.00,0,0,0,0,50000,50000,0,50000,0,0,0,0,0.00,0.00,0.00,0.00
2017-06-29 13:40:00,0,50000,43,0.04,0,0,0,0,50000,50000,0,50000,0,61,22,51,0.00,0.15,0.05,0.05
2017-06-29 13:50:00,0,50000,5,0.00,0,0,0,0,50000,50000,0,50000,0,51,15,0,0.00,0.00,0.00,0.00
2017-06-29 14:00:00,0,50000,0,0.00,0,0,0,0,50000,50000,0,50000,0,0,0,0,0.00,0.00,0.00,0.00
2017-06-29 14:10:00,0,50000,0,0.00,0,0,0,0,50000,50000,0,50000,0,0,0,0,0.00,0.00,0.00,0.00
2017-06-29 14:20:00,0,48083,6,0.54,0,0,0,0,30834,50000,5750,50000,0,61,18,0,0.00,5.40,1.62,0.00
2017-06-29 14:30:00,0,47369,59,0.48,0,0,0,0,42191,50000,2767,47958,51,61,4,61,0.10,1.30,0.40,0.32
2017-06-29 14:40:00,0,47326,54,0.11,0,0,0,0,38167,50000,4319,50000,0,61,18,61,0.00,0.50,0.16,0.05
2017-06-29 14:50:00,0,50000,0,0.00,0,0,0,0,50000,50000,0,50000,0,0,0,0,0.00,0.00,0.00,0.00
2017-06-29 15:00:00,0,47856,43,0.21,0,0,0,0,40099,50000,3841,50000,0,61,28,61,0.00,0.95,0.29,0.10
2017-06-29 15:10:00,0,50000,20,0.02,0,0,0,0,50000,50000,0,50000,0,51,25,0,0.00,0.10,0.03,0.00
2017-06-29 15:20:00,0,50000,0,0.00,0,0,0,0,50000,50000,0,50000,0,0,0,0,0.00,0.00,0.00,0.00
2017-06-29 15:30:00,0,50000,0,0.00,0,0,0,0,50000,50000,0,50000,0,0,0,0,0.00,0.00,0.00,0.00
2017-06-29 15:40:00,0,50000,0,0.00,0,0,0,0,50000,50000,0,50000,0,0,0,0,0.00,0.00,0.00,0.00
2017-06-29 15:50:00,0,50000,0,0.00,0,0,0,0,50000,50000,0,50000,0,0,0,0,0.00,0.00,0.00,0.00
2017-06-29 16:00:00,0,50000,0,0.00,0,0,0,0,50000,50000,0,50000,0,0,0,0,0.00,0.00,0.00,0.00
2017-06-29 16:10:00,0,50000,0,0.00,0,0,0,0,50000,50000,0,50000,0,0,0,0,0.00,0.00,0.00,0.00
2017-06-29 16:20:00,0,50000,0,0.00,0,0,0,0,50000,50000,0,50000,0,0,0,0,0.00,0.00,0.00,0.00
2017-06-29 16:30:00,0,50000,0,0.00,0,0,0,0,50000,50000,0,50000,0,0,0,0,0.00,0.00,0.00,0.00
2017-06-29 16:40:00,0,50000,0,0.00,0,0,0,0,50000,50000,0,50000,0,0,0,0,0.00,0.00,0.00,0.00
2017-06-29 16:50:00,0,50000,0,0.00,0,0,0,0,50000,50000,0,50000,0,0,0,0,0.00,0.00,0.00,0.00
2017-06-29 17:00:00,0,50000,0,0.00,0,0,0,0,50000,50000,0,50000,0,0,0,0,0.00,0.00,0.00,0.00
2017-06-29 17:10:00,0,49886,0,0.00,0,0,0,0,48861,50000,342,50000,0,0,0,0,0.00,0.00,0.00,0.00
2017-06-29 17:20:00,0,50000,0,0.00,0,0,0,0,50000,50000,0,50000,0,0,0,0,0.00,0.00,0.00,0.00
2017-06-29 17:30:00,0,50000,0,0.00,0,0,0,0,50000,50000,0,50000,0,0,0,0,0.00,0.00,0.00,0.00
2017-06-29 17:40:00,0,50000,0,0.00,0,0,0,0,50000,50000,0,50000,0,0,0,0,0.00,0.00,0.00,0.00
2017-06-29 17:50:00,0,50000,0,0.00,0,0,0,0,50000,50000,0,50000,0,0,0,0,0.00,0.00,0.00,0.00
2017-06-29 18:00:00,0,49919,0,0.00,0,0,0,0,49189,50000,243,50000,0,0,0,0,0.00,0.00,0.00,0.00
2017-06-29 18:10:00,0,49960,0,0.00,0,0,0,0,49605,50000,118,50000,0,0,0,0,0.00,0.00,0.00,0.00
2017-06-29 18:20:00,0,50000,0,0.00,0,0,0,0,50000,50000,0,50000,0,0,0,0,0.00,0.00,0.00,0.00
2017-06-29 18:30:00,0,50000,0,0.00,0,0,0,0,50000,50000,0,50000,0,0,0,0,0.00,0.00,0.00,0.00
2017-06-29 18:40:00,0,33515,49,2.58,0,0,0,0,24746,50000,8718,30648,0,61,24,61,0.00,7.75,2.43,2.03
2017-06-29 18:50:00,0,40275,57,0.97,0,0,0,0,32019,50000,5723,39046,52,61,4,61,0.20,2.55,0.77,0.73
2017-06-29 19:00:00,0,49772,15,0.02,0,0,0,0,48740,50000,460,50000,0,52,24,0,0.00,0.10,0.03,0.00
2017-06-29 19:10:00,0,50000,0,0.00,0,0,0,0,50000,50000,0,50000,0,0,0,0,0.00,0.00,0.00,0.00
2017-06-29 19:20:00,0,49498,0,0.00,0,0,0,0,44980,50000,1506,50000,0,0,0,0,0.00,0.00,0.00,0.00
2017-06-29 19:30:00,0,49895,0,0.00,0,0,0,0,48950,50000,315,50000,0,0,0,0,0.00,0.00,0.00,0.00
2017-06-29 19:40:00,0,50000,0,0.00,0,0,0,0,50000,50000,0,50000,0,0,0,0,0.00,0.00,0.00,0.00
2017-06-29 19:50:00,0,49591,0,0.00,0,0,0,0,45913,50000,1226,50000,0,0,0,0,0.00,0.00,0.00,0.00
2017-06-29 20:00:00,0,49995,0,0.00,0,0,0,0,49947,50000,16,50000,0,0,0,0,0.00,0.00,0.00,0.00
2017-06-29 20:10:00,0,49046,0,0.00,0,0,0,0,43667,50000,1901,50000,0,0,0,0,0.00,0.00,0.00,0.00
2017-06-29 20:20:00,0,45860,0,0.00,0,0,0,0,22931,50000,8429,49943,0,0,0,0,0.00,0.00,0.00,0.00
2017-06-29 20:30:00,0,49827,0,0.00,0,0,0,0,48392,50000,479,50000,0,0,0,0,0.00,0.00,0.00,0.00
2017-06-29 20:40:00,0,49547,0,0.00,0,0,0,0,47540,50000,911,50000,0,0,0,0,0.00,0.00,0.00,0.00
2017-06-29 20:50:00,0,50000,0,0.00,0,0,0,0,50000,50000,0,50000,0,0,0,0,0.00,0.00,0.00,0.00
2017-06-29 21:00:00,0,48778,0,0.00,0,0,0,0,42073,50000,2502,50000,0,0,0,0,0.00,0.00,0.00,0.00
2017-06-29 21:10:00,0,49784,0,0.00,0,0,0,0,47839,50000,648,50000,0,0,0,0,0.00,0.00,0.00,0.00
2017-06-29 21:20:00,0,49521,0,0.00,0,0,0,0,46420,50000,1095,50000,0,0,0,0,0.00,0.00,0.00,0.00
2017-06-29 21:30:00,0,49831,0,0.00,0,0,0,0,48583,50000,424,50000,0,0,0,0,0.00,0.00,0.00,0.00
2017-06-29 21:40:00,0,48354,0,0.00,0,0,0,0,43494,50000,2296,50000,0,0,0,0,0.00,0.00,0.00,0.00
2017-06-29 21:50:00,0,49322,0,0.00,0,0,0,0,46456,50000,1358,50000,0,0,0,0,0.00,0.00,0.00,0.00
2017-06-29 22:00:00,0,49404,0,0.00,0,0,0,0,46236,50000,1191,50000,0,0,0,0,0.00,0.00,0.00,0.00
2017-06-29 22:10:00,0,48906,0,0.00,0,0,0,0,43973,50000,1791,49872,0,0,0,0,0.00,0.00,0.00,0.00
2017-06-29 22:20:00,0,49889,0,0.00,0,0,0,0,48891,50000,333,50000,0,0,0,0,0.00,0.00,0.00,0.00
2017-06-29 22:30:00,0,46646,0,0.00,0,0,0,0,35422,50000,4552,49222,0,0,0,0,0.00,0.00,0.00,0.00
2017-06-29 22:40:00,0,40792,0,0.00,0,0,0,0,30293,49021,5616,40605,0,0,0,0,0.00,0.00,0.00,0.00
2017-06-29 22:50:00,0,43462,0,0.00,0,0,0,0,29318,50000,7511,47756,0,0,0,0,0.00,0.00,0.00,0.00
2017-06-29 23:00:00,0,48528,0,0.00,0,0,0,0,44928,50000,1762,49392,0,0,0,0,0.00,0.00,0.00,0.00
2017-06-29 23:10:00,0,49698,0,0.00,0,0,0,0,48601,50000,492,50000,0,0,0,0,0.00,0.00,0.00,0.00
2017-06-29 23:20:00,0,37631,0,0.00,0,0,0,0,23730,50000,7965,37470,0,0,0,0,0.00,0.00,0.00,0.00
2017-06-29 23:30:00,0,41966,0,0.00,0,0,0,0,24022,50000,7853,43260,0,0,0,0,0.00,0.00,0.00,0.00
2017-06-29 23:40:00,0,42797,0,0.00,0,0,0,0,20833,50000,8923,46330,0,0,0,0,0.00,0.00,0.00,0.00
2017-06-29 23:50:00,0,41983,0,0.00,0,0,0,0,27582,50000,7117,43063,0,0,0,0,0.00,0.00,0.00,0.00
